When you browse on this site, cookies collect data to enhance your experience and personalize the content and advertising you see.
Visit our Privacy Policy to learn more. By continuing to use the site, you agree to this use of cookies and data.
  • în România
  • Lista ţărilor
  • Pe 7 zile
  • Temperatura apei
  • Hartă satelitară
  • Meteo pe hartă
  • Widget-uri
  • user-avatar
    Intrare

    Meteo pe oră la Arroyomolinos

    Astăzi, 21 Iulie, Duminică

    Timp Temperatura Precipitaţii Vânt Presiune Umiditate
    00:00 +28°C° 0 mm 3 m/s 706 mmHg 32%
    01:00 +27°C° 0 mm 3 m/s 705 mmHg 32%
    02:00 +27°C° 0 mm 3 m/s 705 mmHg 32%
    03:00 +26°C° 0 mm 3 m/s 705 mmHg 32%
    04:00 +26°C° 0 mm 3 m/s 706 mmHg 35%
    05:00 +26°C° 0 mm 4 m/s 706 mmHg 38%
    06:00 +26°C° 0 mm 4 m/s 706 mmHg 41%
    07:00 +27°C° 0 mm 4 m/s 706 mmHg 37%
    08:00 +29°C° 0 mm 3 m/s 707 mmHg 34%
    09:00 +31°C° 0 mm 3 m/s 707 mmHg 31%
    10:00 +34°C° 0 mm 3 m/s 707 mmHg 27%
    11:00 +35°C° 0 mm 2 m/s 707 mmHg 23%
    12:00 +37°C° 0 mm 2 m/s 707 mmHg 19%
    13:00 +38°C° 0 mm 2 m/s 707 mmHg 18%
    14:00 +39°C° 0 mm 2 m/s 706 mmHg 17%
    15:00 +40°C° 0 mm 2 m/s 706 mmHg 15%
    16:00 +40°C° 0 mm 2 m/s 706 mmHg 15%
    17:00 +40°C° 0 mm 2 m/s 706 mmHg 15%
    18:00 +40°C° 0 mm 2 m/s 706 mmHg 14%
    19:00 +37°C° 0 mm 3 m/s 706 mmHg 20%
    20:00 +35°C° 0 mm 5 m/s 707 mmHg 25%
    21:00 +33°C° 0 mm 7 m/s 707 mmHg 31%
    22:00 +32°C° 0 mm 6 m/s 707 mmHg 34%
    23:00 +29°C° 0 mm 6 m/s 707 mmHg 37%

    Mâine, 22 Iulie, Luni

    Timp Temperatura Precipitaţii Vânt Presiune Umiditate
    00:00 +28°C° 0 mm 6 m/s 707 mmHg 40%
    01:00 +27°C° 0 mm 5 m/s 707 mmHg 40%
    02:00 +27°C° 0 mm 5 m/s 707 mmHg 39%
    03:00 +26°C° 0 mm 5 m/s 707 mmHg 39%
    04:00 +26°C° 0.1 mm 5 m/s 707 mmHg 39%
    05:00 +26°C° 0.1 mm 4 m/s 707 mmHg 39%
    06:00 +26°C° 0.1 mm 4 m/s 707 mmHg 40%
    07:00 +27°C° 0 mm 4 m/s 707 mmHg 35%
    08:00 +29°C° 0 mm 5 m/s 707 mmHg 30%
    09:00 +32°C° 0 mm 5 m/s 708 mmHg 25%
    10:00 +34°C° 0 mm 5 m/s 708 mmHg 23%
    11:00 +36°C° 0 mm 5 m/s 707 mmHg 20%
    12:00 +39°C° 0 mm 5 m/s 707 mmHg 17%
    13:00 +39°C° 0 mm 5 m/s 707 mmHg 17%
    14:00 +40°C° 0 mm 6 m/s 707 mmHg 16%
    15:00 +41°C° 0 mm 6 m/s 706 mmHg 15%
    16:00 +40°C° 0 mm 7 m/s 706 mmHg 16%
    17:00 +40°C° 0 mm 7 m/s 706 mmHg 17%
    18:00 +39°C° 0 mm 7 m/s 706 mmHg 18%
    19:00 +36°C° 0 mm 7 m/s 706 mmHg 18%
    20:00 +34°C° 0 mm 7 m/s 706 mmHg 19%
    21:00 +32°C° 0 mm 7 m/s 706 mmHg 20%
    22:00 +30°C° 0.1 mm 6 m/s 706 mmHg 22%
    23:00 +29°C° 0.1 mm 6 m/s 706 mmHg 25%

    Poimâine, 23 Iulie, Marţi

    Timp Temperatura Precipitaţii Vânt Presiune Umiditate
    00:00 +28°C° 0.1 mm 5 m/s 706 mmHg 27%
    01:00 +27°C° 0.2 mm 4 m/s 706 mmHg 30%
    02:00 +26°C° 0.2 mm 4 m/s 706 mmHg 32%
    03:00 +25°C° 0.2 mm 3 m/s 706 mmHg 35%
    04:00 +25°C° 0 mm 3 m/s 706 mmHg 36%
    05:00 +25°C° 0 mm 3 m/s 706 mmHg 37%
    06:00 +25°C° 0 mm 3 m/s 706 mmHg 37%
    07:00 +27°C° 0 mm 3 m/s 706 mmHg 34%
    08:00 +28°C° 0 mm 3 m/s 706 mmHg 31%
    09:00 +30°C° 0 mm 3 m/s 706 mmHg 27%
    10:00 +33°C° 0 mm 3 m/s 706 mmHg 24%
    11:00 +35°C° 0 mm 3 m/s 706 mmHg 20%
    12:00 +37°C° 0 mm 3 m/s 706 mmHg 17%
    13:00 +38°C° 0 mm 4 m/s 705 mmHg 16%
    14:00 +40°C° 0 mm 5 m/s 705 mmHg 15%
    15:00 +41°C° 0 mm 6 m/s 704 mmHg 14%
    16:00 +41°C° 0 mm 5 m/s 704 mmHg 15%
    17:00 +40°C° 0 mm 5 m/s 704 mmHg 15%
    18:00 +40°C° 0 mm 5 m/s 703 mmHg 16%
    19:00 +36°C° 0.3 mm 5 m/s 703 mmHg 22%
    20:00 +33°C° 0.3 mm 4 m/s 704 mmHg 28%
    21:00 +30°C° 0.3 mm 4 m/s 704 mmHg 34%
    22:00 +29°C° 0 mm 4 m/s 704 mmHg 33%
    23:00 +28°C° 0 mm 4 m/s 704 mmHg 32%

    24 Iulie, Miercuri

    Timp Temperatura Precipitaţii Vânt Presiune Umiditate
    00:00 +28°C° 0 mm 3 m/s 704 mmHg 31%
    01:00 +27°C° 0 mm 3 m/s 704 mmHg 31%
    02:00 +27°C° 0 mm 4 m/s 703 mmHg 31%
    03:00 +27°C° 0 mm 4 m/s 703 mmHg 31%
    04:00 +26°C° 0 mm 4 m/s 703 mmHg 32%
    05:00 +26°C° 0 mm 4 m/s 703 mmHg 32%
    06:00 +26°C° 0 mm 4 m/s 703 mmHg 33%
    07:00 +27°C° 0 mm 4 m/s 704 mmHg 31%
    08:00 +29°C° 0 mm 4 m/s 704 mmHg 29%
    09:00 +32°C° 0 mm 4 m/s 704 mmHg 26%
    10:00 +34°C° 0 mm 3 m/s 704 mmHg 24%
    11:00 +35°C° 0 mm 3 m/s 704 mmHg 23%
    12:00 +37°C° 0 mm 3 m/s 704 mmHg 21%
    13:00 +38°C° 0 mm 3 m/s 703 mmHg 19%
    14:00 +40°C° 0 mm 4 m/s 703 mmHg 17%
    15:00 +41°C° 0 mm 5 m/s 702 mmHg 15%
    16:00 +41°C° 0 mm 5 m/s 702 mmHg 15%
    17:00 +41°C° 0 mm 5 m/s 702 mmHg 15%
    18:00 +40°C° 0 mm 5 m/s 701 mmHg 14%
    19:00 +39°C° 0 mm 5 m/s 702 mmHg 16%
    20:00 +36°C° 0 mm 4 m/s 702 mmHg 17%
    21:00 +34°C° 0 mm 4 m/s 702 mmHg 18%
    22:00 +33°C° 0 mm 4 m/s 702 mmHg 21%
    23:00 +30°C° 0 mm 4 m/s 702 mmHg 23%

    25 Iulie, Joi

    Timp Temperatura Precipitaţii Vânt Presiune Umiditate
    00:00 +29°C° 0 mm 5 m/s 702 mmHg 26%
    01:00 +28°C° 0 mm 4 m/s 702 mmHg 29%
    02:00 +27°C° 0 mm 3 m/s 702 mmHg 31%
    03:00 +26°C° 0 mm 2 m/s 702 mmHg 34%
    04:00 +25°C° 0 mm 2 m/s 702 mmHg 36%
    05:00 +25°C° 0 mm 2 m/s 703 mmHg 37%
    06:00 +25°C° 0 mm 2 m/s 703 mmHg 39%
    07:00 +27°C° 0 mm 3 m/s 703 mmHg 35%
    08:00 +28°C° 0 mm 4 m/s 703 mmHg 31%
    09:00 +30°C° 0 mm 5 m/s 704 mmHg 27%
    10:00 +32°C° 0 mm 5 m/s 703 mmHg 25%
    11:00 +33°C° 0 mm 5 m/s 703 mmHg 23%
    12:00 +34°C° 0 mm 6 m/s 703 mmHg 21%
    13:00 +35°C° 0 mm 6 m/s 703 mmHg 19%
    14:00 +36°C° 0 mm 6 m/s 702 mmHg 16%
    15:00 +38°C° 0 mm 6 m/s 702 mmHg 14%
    16:00 +36°C° 0 mm 6 m/s 702 mmHg 15%
    17:00 +36°C° 0 mm 5 m/s 702 mmHg 15%
    18:00 +36°C° 0 mm 5 m/s 702 mmHg 16%
    19:00 +34°C° 0 mm 5 m/s 702 mmHg 22%
    20:00 +32°C° 0 mm 4 m/s 702 mmHg 27%
    21:00 +29°C° 0 mm 4 m/s 703 mmHg 32%
    22:00 +28°C° 0 mm 4 m/s 703 mmHg 38%
    23:00 +27°C° 0 mm 4 m/s 703 mmHg 45%

    26 Iulie, Vineri

    Timp Temperatura Precipitaţii Vânt Presiune Umiditate
    00:00 +26°C° 0 mm 4 m/s 703 mmHg 51%
    01:00 +25°C° 0 mm 4 m/s 703 mmHg 52%
    02:00 +23°C° 0 mm 4 m/s 703 mmHg 53%
    03:00 +22°C° 0 mm 4 m/s 703 mmHg 54%
    04:00 +22°C° 0 mm 3 m/s 703 mmHg 53%
    05:00 +22°C° 0 mm 3 m/s 704 mmHg 52%
    06:00 +21°C° 0 mm 2 m/s 704 mmHg 51%
    07:00 +24°C° 0 mm 2 m/s 704 mmHg 48%
    08:00 +26°C° 0 mm 2 m/s 704 mmHg 44%
    09:00 +27°C° 0 mm 1 m/s 705 mmHg 41%
    10:00 +29°C° 0 mm 1 m/s 705 mmHg 37%
    11:00 +30°C° 0 mm 1 m/s 705 mmHg 32%
    12:00 +31°C° 0 mm 1 m/s 705 mmHg 27%
    13:00 +32°C° 0 mm 1 m/s 705 mmHg 24%
    14:00 +33°C° 0 mm 1 m/s 704 mmHg 21%
    15:00 +35°C° 0 mm 2 m/s 704 mmHg 19%
    16:00 +35°C° 0 mm 2 m/s 704 mmHg 18%
    17:00 +35°C° 0 mm 2 m/s 704 mmHg 17%
    18:00 +35°C° 0 mm 3 m/s 704 mmHg 15%
    19:00 +33°C° 0 mm 3 m/s 705 mmHg 17%
    20:00 +30°C° 0 mm 3 m/s 705 mmHg 19%
    21:00 +29°C° 0 mm 3 m/s 705 mmHg 21%
    22:00 +27°C° 0 mm 4 m/s 705 mmHg 29%
    23:00 +26°C° 0 mm 5 m/s 705 mmHg 37%
    Arată mai mult